DIRECTV 8

Last updated on Thu Oct 30 2025 00:02:47 GMT+0000 (Coordinated Universal Time)

1 28659U 05019A 25302.52526175 .00000011 00000+0 00000+0 0 9990 2 28659 0.0111 237.3790 0003195 347.6662 243.1261 1.00272553 74766
UTC large
Height (km)
Speed (km/s)
/
Latitude / Longitude
Inclination (degrees)
Orbital Period (minutes)
Azimuth
Elevation
Range (km)
Doppler Factor

Next 0 passes for location: London (51.5072 / 0.1276)

Sorry there are no passes over London.